Time,TemperatureF,DewpointF,PressureIn,WindDirection,WindDirectionDegrees,WindSpeedMPH,WindSpeedGustMPH,Humidity,HourlyPrecipIn,Conditions,Clouds,dailyrainin,SoftwareType,DateUTC
2013-05-30 00:01:00,60.0,53.0,-100.00,NE,45,11.0,14.0,78,-99.99,,,-99.99,,2013-05-30 06:01:00,
2013-05-30 00:12:00,60.0,53.0,-100.00,NE,45,11.0,14.0,78,-99.99,,,-99.99,,2013-05-30 06:12:00,
2013-05-30 00:22:00,60.0,53.0,-100.00,NE,50,12.0,16.0,78,-99.99,,,-99.99,,2013-05-30 06:22:00,
2013-05-30 00:32:00,59.0,53.0,-100.00,NE,50,16.0,19.0,78,-99.99,,,-99.99,,2013-05-30 06:32:00,
2013-05-30 00:42:00,59.0,53.0,-100.00,NE,50,16.0,19.0,78,-99.99,,,-99.99,,2013-05-30 06:42:00,
2013-05-30 00:52:00,59.0,52.0,-100.00,NE,50,16.0,19.0,79,-99.99,,,-99.99,,2013-05-30 06:52:00,
2013-05-30 01:01:00,58.0,53.0,-100.00,NE,40,13.0,17.0,81,-99.99,,,-99.99,,2013-05-30 07:01:00,
2013-05-30 01:12:00,58.0,53.0,-100.00,NE,40,13.0,17.0,81,-99.99,,,-99.99,,2013-05-30 07:12:00,
2013-05-30 01:22:00,58.0,53.0,-100.00,NE,40,14.0,18.0,82,-99.99,,,-99.99,,2013-05-30 07:22:00,
2013-05-30 01:32:00,58.0,53.0,-100.00,NE,45,14.0,20.0,82,-99.99,,,-99.99,,2013-05-30 07:32:00,
2013-05-30 01:42:00,58.0,53.0,-100.00,NE,45,14.0,20.0,82,-99.99,,,-99.99,,2013-05-30 07:42:00,
2013-05-30 01:52:00,58.0,53.0,-100.00,NE,45,15.0,20.0,82,-99.99,,,-99.99,,2013-05-30 07:52:00,
2013-05-30 02:02:00,58.0,52.0,-100.00,NE,50,14.0,22.0,82,-99.99,,,-99.99,,2013-05-30 08:02:00,
2013-05-30 02:11:00,58.0,52.0,-100.00,NE,50,14.0,22.0,82,-99.99,,,-99.99,,2013-05-30 08:11:00,
2013-05-30 02:21:00,57.0,52.0,-100.00,NE,55,16.0,22.0,82,-99.99,,,-99.99,,2013-05-30 08:21:00,
2013-05-30 02:32:00,56.0,51.0,-100.00,NE,50,19.0,24.0,82,-99.99,,,-99.99,,2013-05-30 08:32:00,
2013-05-30 02:42:00,56.0,51.0,-100.00,NE,50,19.0,24.0,82,-99.99,,,-99.99,,2013-05-30 08:42:00,
2013-05-30 02:52:00,56.0,51.0,-100.00,NE,50,19.0,26.0,81,-99.99,,,-99.99,,2013-05-30 08:52:00,
2013-05-30 03:01:00,56.0,51.0,-100.00,NE,50,19.0,26.0,82,-99.99,,,-99.99,,2013-05-30 09:01:00,
2013-05-30 03:11:00,56.0,51.0,-100.00,NE,50,19.0,26.0,82,-99.99,,,-99.99,,2013-05-30 09:11:00,
2013-05-30 03:21:00,56.0,51.0,-100.00,NE,45,22.0,27.0,82,-99.99,,,-99.99,,2013-05-30 09:21:00,
2013-05-30 03:33:00,56.0,51.0,-100.00,NE,45,18.0,28.0,83,-99.99,,,-99.99,,2013-05-30 09:33:00,
2013-05-30 03:42:00,56.0,51.0,-100.00,NE,45,18.0,28.0,83,-99.99,,,-99.99,,2013-05-30 09:42:00,
2013-05-30 03:53:00,56.0,51.0,-100.00,NE,45,19.0,26.0,83,-99.99,,,-99.99,,2013-05-30 09:53:00,
2013-05-30 04:03:00,55.0,51.0,-100.00,NE,45,17.0,26.0,83,-99.99,,,-99.99,,2013-05-30 10:03:00,
2013-05-30 04:13:00,55.0,51.0,-100.00,NE,45,17.0,26.0,83,-99.99,,,-99.99,,2013-05-30 10:13:00,
2013-05-30 04:23:00,55.0,50.0,-100.00,NE,35,19.0,25.0,83,-99.99,,,-99.99,,2013-05-30 10:23:00,
2013-05-30 04:32:00,55.0,50.0,-100.00,NE,40,21.0,26.0,83,-99.99,,,-99.99,,2013-05-30 10:32:00,
2013-05-30 04:42:00,55.0,50.0,-100.00,NE,40,21.0,26.0,83,-99.99,,,-99.99,,2013-05-30 10:42:00,
2013-05-30 04:52:00,55.0,50.0,-100.00,NE,35,20.0,28.0,83,-99.99,,,-99.99,,2013-05-30 10:52:00,
2013-05-30 05:03:00,55.0,50.0,-100.00,NE,40,21.0,27.0,83,-99.99,,,-99.99,,2013-05-30 11:03:00,
2013-05-30 05:12:00,55.0,50.0,-100.00,NE,40,21.0,27.0,83,-99.99,,,-99.99,,2013-05-30 11:12:00,
2013-05-30 05:22:00,55.0,50.0,-100.00,NE,40,18.0,26.0,83,-99.99,,,-99.99,,2013-05-30 11:22:00,
2013-05-30 05:32:00,55.0,50.0,-100.00,NE,40,21.0,30.0,83,-99.99,,,-99.99,,2013-05-30 11:32:00,
2013-05-30 05:42:00,55.0,50.0,-100.00,NE,40,21.0,30.0,83,-99.99,,,-99.99,,2013-05-30 11:42:00,
2013-05-30 05:52:00,55.0,50.0,-100.00,NE,40,19.0,26.0,83,-99.99,,,-99.99,,2013-05-30 11:52:00,
2013-05-30 06:01:00,55.0,50.0,-100.00,NE,35,17.0,23.0,83,-99.99,,,-99.99,,2013-05-30 12:01:00,
2013-05-30 06:11:00,55.0,50.0,-100.00,NE,35,17.0,23.0,83,-99.99,,,-99.99,,2013-05-30 12:11:00,
2013-05-30 06:22:00,54.0,49.0,-100.00,NE,40,19.0,26.0,82,-99.99,,,-99.99,,2013-05-30 12:22:00,
2013-05-30 06:32:00,54.0,49.0,-100.00,NE,40,20.0,29.0,83,-99.99,,,-99.99,,2013-05-30 12:32:00,
2013-05-30 06:42:00,54.0,49.0,-100.00,NE,40,20.0,29.0,83,-99.99,,,-99.99,,2013-05-30 12:42:00,
2013-05-30 06:52:00,54.0,49.0,-100.00,NNE,30,20.0,24.0,83,-99.99,,,-99.99,,2013-05-30 12:52:00,
2013-05-30 07:01:00,54.0,49.0,-100.00,NNE,30,19.0,28.0,82,-99.99,,,-99.99,,2013-05-30 13:01:00,
2013-05-30 07:11:00,54.0,49.0,-100.00,NNE,30,19.0,28.0,82,-99.99,,,-99.99,,2013-05-30 13:11:00,
2013-05-30 07:22:00,54.0,48.0,-100.00,NE,35,24.0,29.0,82,-99.99,,,-99.99,,2013-05-30 13:22:00,
2013-05-30 07:32:00,54.0,48.0,-100.00,NNE,30,21.0,29.0,81,-99.99,,,-99.99,,2013-05-30 13:32:00,
2013-05-30 07:42:00,54.0,48.0,-100.00,NNE,30,21.0,29.0,81,-99.99,,,-99.99,,2013-05-30 13:42:00,
2013-05-30 07:52:00,53.0,48.0,-100.00,NE,35,24.0,30.0,81,-99.99,,,-99.99,,2013-05-30 13:52:00,
2013-05-30 08:01:00,53.0,47.0,-100.00,NE,35,18.0,29.0,81,-99.99,,,-99.99,,2013-05-30 14:01:00,
2013-05-30 08:11:00,53.0,47.0,-100.00,NE,35,18.0,29.0,81,-99.99,,,-99.99,,2013-05-30 14:11:00,
2013-05-30 08:22:00,53.0,47.0,-100.00,NNE,30,21.0,29.0,81,-99.99,,,-99.99,,2013-05-30 14:22:00,
2013-05-30 08:32:00,53.0,47.0,-100.00,NE,35,22.0,29.0,81,-99.99,,,-99.99,,2013-05-30 14:32:00,
2013-05-30 08:42:00,53.0,47.0,-100.00,NE,35,22.0,29.0,81,-99.99,,,-99.99,,2013-05-30 14:42:00,
2013-05-30 08:52:00,53.0,47.0,-100.00,NNE,25,20.0,27.0,81,-99.99,,,-99.99,,2013-05-30 14:52:00,
2013-05-30 09:01:00,52.0,47.0,-100.00,NNE,25,20.0,26.0,81,-99.99,,,-99.99,,2013-05-30 15:01:00,
2013-05-30 09:11:00,52.0,47.0,-100.00,NNE,25,20.0,26.0,81,-99.99,,,-99.99,,2013-05-30 15:11:00,
2013-05-30 09:22:00,53.0,47.0,-100.00,NNE,30,19.0,26.0,81,-99.99,,,-99.99,,2013-05-30 15:22:00,
2013-05-30 09:33:00,52.0,47.0,-100.00,NE,35,19.0,26.0,82,-99.99,,,-99.99,,2013-05-30 15:33:00,
2013-05-30 09:42:00,52.0,47.0,-100.00,NE,35,19.0,26.0,82,-99.99,,,-99.99,,2013-05-30 15:42:00,
2013-05-30 09:52:00,52.0,47.0,-100.00,NNE,30,17.0,24.0,82,-99.99,,,-99.99,,2013-05-30 15:52:00,
2013-05-30 10:03:00,52.0,47.0,-100.00,NE,35,16.0,24.0,82,-99.99,,,-99.99,,2013-05-30 16:03:00,
2013-05-30 10:12:00,52.0,47.0,-100.00,NE,35,16.0,24.0,82,-99.99,,,-99.99,,2013-05-30 16:12:00,
2013-05-30 10:23:00,53.0,47.0,-100.00,NE,35,18.0,24.0,82,-99.99,,,-99.99,,2013-05-30 16:23:00,
2013-05-30 10:33:00,53.0,47.0,-100.00,NE,40,19.0,26.0,82,-99.99,,,-99.99,,2013-05-30 16:33:00,
2013-05-30 10:42:00,53.0,47.0,-100.00,NE,40,19.0,26.0,82,-99.99,,,-99.99,,2013-05-30 16:42:00,
2013-05-30 10:52:00,53.0,48.0,-100.00,NE,40,17.0,25.0,82,-99.99,,,-99.99,,2013-05-30 16:52:00,
2013-05-30 11:02:00,53.0,48.0,-100.00,NE,35,19.0,26.0,82,-99.99,,,-99.99,,2013-05-30 17:02:00,
2013-05-30 11:12:00,53.0,48.0,-100.00,NE,35,19.0,26.0,82,-99.99,,,-99.99,,2013-05-30 17:12:00,
2013-05-30 11:22:00,53.0,48.0,-100.00,NE,40,19.0,24.0,82,-99.99,,,-99.99,,2013-05-30 17:22:00,
2013-05-30 11:32:00,53.0,48.0,-100.00,NNE,30,18.0,23.0,83,-99.99,,,-99.99,,2013-05-30 17:32:00,
2013-05-30 11:42:00,53.0,48.0,-100.00,NNE,30,18.0,23.0,83,-99.99,,,-99.99,,2013-05-30 17:42:00,
2013-05-30 11:52:00,53.0,48.0,-100.00,NNE,25,17.0,21.0,83,-99.99,,,-99.99,,2013-05-30 17:52:00,
2013-05-30 12:02:00,53.0,48.0,-100.00,NNE,30,18.0,26.0,82,-99.99,,,-99.99,,2013-05-30 18:02:00,
2013-05-30 12:11:00,53.0,48.0,-100.00,NNE,30,18.0,26.0,82,-99.99,,,-99.99,,2013-05-30 18:11:00,
2013-05-30 12:22:00,53.0,48.0,-100.00,NNE,30,18.0,23.0,82,-99.99,,,-99.99,,2013-05-30 18:22:00,
2013-05-30 12:32:00,53.0,48.0,-100.00,NNE,20,17.0,22.0,83,-99.99,,,-99.99,,2013-05-30 18:32:00,
2013-05-30 12:42:00,53.0,48.0,-100.00,NNE,20,17.0,22.0,83,-99.99,,,-99.99,,2013-05-30 18:42:00,
2013-05-30 12:51:00,53.0,48.0,-100.00,NNE,25,18.0,23.0,83,-99.99,,,-99.99,,2013-05-30 18:51:00,
2013-05-30 13:01:00,53.0,48.0,-100.00,NNE,30,19.0,24.0,83,-99.99,,,-99.99,,2013-05-30 19:01:00,
2013-05-30 13:12:00,53.0,48.0,-100.00,NNE,30,19.0,24.0,83,-99.99,,,-99.99,,2013-05-30 19:12:00,
2013-05-30 13:23:00,54.0,49.0,-100.00,NNE,25,16.0,22.0,83,-99.99,,,-99.99,,2013-05-30 19:23:00,
2013-05-30 13:32:00,54.0,49.0,-100.00,NNE,30,18.0,23.0,82,-99.99,,,-99.99,,2013-05-30 19:32:00,
2013-05-30 13:42:00,54.0,49.0,-100.00,NNE,30,18.0,23.0,82,-99.99,,,-99.99,,2013-05-30 19:42:00,
2013-05-30 13:52:00,54.0,49.0,-100.00,NNE,30,21.0,27.0,82,-99.99,,,-99.99,,2013-05-30 19:52:00,
2013-05-30 14:01:00,54.0,49.0,-100.00,NNE,25,21.0,26.0,81,-99.99,,,-99.99,,2013-05-30 20:01:00,
2013-05-30 14:11:00,54.0,49.0,-100.00,NNE,25,21.0,26.0,81,-99.99,,,-99.99,,2013-05-30 20:11:00,
2013-05-30 14:22:00,54.0,49.0,-100.00,NNE,30,19.0,27.0,81,-99.99,,,-99.99,,2013-05-30 20:22:00,
2013-05-30 14:33:00,54.0,49.0,-100.00,NNE,30,22.0,26.0,81,-99.99,,,-99.99,,2013-05-30 20:33:00,
2013-05-30 14:42:00,54.0,49.0,-100.00,NNE,30,22.0,26.0,81,-99.99,,,-99.99,,2013-05-30 20:42:00,
2013-05-30 14:52:00,54.0,49.0,-100.00,NNE,25,22.0,29.0,81,-99.99,,,-99.99,,2013-05-30 20:52:00,
2013-05-30 15:01:00,55.0,50.0,-100.00,NNE,25,21.0,29.0,81,-99.99,,,-99.99,,2013-05-30 21:01:00,
2013-05-30 15:11:00,55.0,50.0,-100.00,NNE,25,21.0,29.0,81,-99.99,,,-99.99,,2013-05-30 21:11:00,
2013-05-30 15:22:00,55.0,49.0,-100.00,NNE,30,21.0,28.0,81,-99.99,,,-99.99,,2013-05-30 21:22:00,
2013-05-30 15:33:00,56.0,50.0,-100.00,NNE,25,17.0,29.0,80,-99.99,,,-99.99,,2013-05-30 21:33:00,
2013-05-30 15:43:00,56.0,50.0,-100.00,NNE,25,17.0,29.0,80,-99.99,,,-99.99,,2013-05-30 21:43:00,
2013-05-30 15:53:00,55.0,49.0,-100.00,NNE,25,24.0,29.0,80,-99.99,,,-99.99,,2013-05-30 21:53:00,
2013-05-30 16:02:00,55.0,49.0,-100.00,NNE,25,23.0,27.0,80,-99.99,,,-99.99,,2013-05-30 22:02:00,
2013-05-30 16:12:00,55.0,49.0,-100.00,NNE,25,23.0,27.0,80,-99.99,,,-99.99,,2013-05-30 22:12:00,
2013-05-30 16:23:00,55.0,50.0,-100.00,NNE,20,22.0,30.0,80,-99.99,,,-99.99,,2013-05-30 22:23:00,
2013-05-30 16:33:00,56.0,50.0,-100.00,NNE,15,17.0,30.0,80,-99.99,,,-99.99,,2013-05-30 22:33:00,
2013-05-30 16:42:00,56.0,50.0,-100.00,NNE,15,17.0,30.0,80,-99.99,,,-99.99,,2013-05-30 22:42:00,
2013-05-30 16:52:00,55.0,49.0,-100.00,NNE,15,18.0,29.0,80,-99.99,,,-99.99,,2013-05-30 22:52:00,
2013-05-30 17:02:00,54.0,49.0,-100.00,North,5,22.0,29.0,82,-99.99,,,-99.99,,2013-05-30 23:02:00,
2013-05-30 17:11:00,54.0,49.0,-100.00,North,5,22.0,29.0,82,-99.99,,,-99.99,,2013-05-30 23:11:00,
2013-05-30 17:22:00,54.0,49.0,-100.00,North,5,20.0,29.0,82,-99.99,,,-99.99,,2013-05-30 23:22:00,
2013-05-30 17:32:00,54.0,49.0,-100.00,North,10,23.0,29.0,83,-99.99,,,-99.99,,2013-05-30 23:32:00,
2013-05-30 17:41:00,54.0,49.0,-100.00,North,10,23.0,29.0,83,-99.99,,,-99.99,,2013-05-30 23:41:00,
2013-05-30 17:52:00,54.0,49.0,-100.00,North,5,21.0,31.0,83,-99.99,,,-99.99,,2013-05-30 23:52:00,
2013-05-30 18:01:00,53.0,49.0,-100.00,North,5,18.0,30.0,84,-99.99,,,-99.99,,2013-05-31 00:01:00,
2013-05-30 18:11:00,53.0,49.0,-100.00,North,5,18.0,30.0,84,-99.99,,,-99.99,,2013-05-31 00:11:00,
2013-05-30 18:22:00,53.0,49.0,-100.00,North,0,20.0,26.0,84,-99.99,,,-99.99,,2013-05-31 00:22:00,
2013-05-30 18:32:00,53.0,49.0,-100.00,North,0,17.0,32.0,84,-99.99,,,-99.99,,2013-05-31 00:32:00,
2013-05-30 18:42:00,53.0,49.0,-100.00,North,0,17.0,32.0,84,-99.99,,,-99.99,,2013-05-31 00:42:00,
2013-05-30 18:52:00,53.0,49.0,-100.00,North,0,17.0,24.0,83,-99.99,,,-99.99,,2013-05-31 00:52:00,
2013-05-30 19:01:00,53.0,48.0,-100.00,North,0,17.0,27.0,82,-99.99,,,-99.99,,2013-05-31 01:01:00,
2013-05-30 19:12:00,53.0,48.0,-100.00,North,0,17.0,27.0,82,-99.99,,,-99.99,,2013-05-31 01:12:00,
2013-05-30 19:21:00,54.0,49.0,-100.00,North,0,16.0,22.0,83,-99.99,,,-99.99,,2013-05-31 01:21:00,
2013-05-30 19:32:00,54.0,49.0,-100.00,North,350,14.0,24.0,83,-99.99,,,-99.99,,2013-05-31 01:32:00,
2013-05-30 19:42:00,54.0,49.0,-100.00,North,350,14.0,24.0,83,-99.99,,,-99.99,,2013-05-31 01:42:00,
2013-05-30 19:52:00,54.0,49.0,-100.00,North,0,16.0,21.0,83,-99.99,,,-99.99,,2013-05-31 01:52:00,
2013-05-30 20:02:00,54.0,49.0,-100.00,North,350,17.0,21.0,83,-99.99,,,-99.99,,2013-05-31 02:02:00,
2013-05-30 20:11:00,54.0,49.0,-100.00,North,350,17.0,21.0,83,-99.99,,,-99.99,,2013-05-31 02:11:00,
2013-05-30 20:22:00,54.0,49.0,-100.00,NNW,340,14.0,21.0,83,-99.99,,,-99.99,,2013-05-31 02:22:00,
2013-05-30 20:32:00,53.0,48.0,-100.00,NW,315,11.0,14.0,83,-99.99,,,-99.99,,2013-05-31 02:32:00,
2013-05-30 20:42:00,53.0,48.0,-100.00,NW,315,11.0,14.0,83,-99.99,,,-99.99,,2013-05-31 02:42:00,
2013-05-30 20:51:00,53.0,48.0,-100.00,NW,315,12.0,16.0,83,-99.99,,,-99.99,,2013-05-31 02:51:00,
2013-05-30 21:01:00,53.0,48.0,-100.00,NW,310,13.0,17.0,83,-99.99,,,-99.99,,2013-05-31 03:01:00,
2013-05-30 21:11:00,53.0,48.0,-100.00,NW,310,13.0,17.0,83,-99.99,,,-99.99,,2013-05-31 03:11:00,
2013-05-30 21:21:00,53.0,48.0,-100.00,NW,305,17.0,20.0,83,-99.99,,,-99.99,,2013-05-31 03:21:00,
2013-05-30 21:33:00,53.0,48.0,-100.00,NW,325,11.0,15.0,83,-99.99,,,-99.99,,2013-05-31 03:33:00,
2013-05-30 21:43:00,53.0,48.0,-100.00,NW,325,11.0,15.0,83,-99.99,,,-99.99,,2013-05-31 03:43:00,
2013-05-30 21:53:00,53.0,48.0,-100.00,NW,315,9.0,16.0,83,-99.99,,,-99.99,,2013-05-31 03:53:00,
2013-05-30 22:02:00,53.0,48.0,-100.00,NW,315,9.0,12.0,83,-99.99,,,-99.99,,2013-05-31 04:02:00,
2013-05-30 22:12:00,53.0,48.0,-100.00,NW,315,9.0,12.0,83,-99.99,,,-99.99,,2013-05-31 04:12:00,
2013-05-30 22:22:00,54.0,49.0,-100.00,NNW,345,10.0,14.0,83,-99.99,,,-99.99,,2013-05-31 04:22:00,
2013-05-30 22:33:00,54.0,50.0,-100.00,NNW,340,9.0,14.0,83,-99.99,,,-99.99,,2013-05-31 04:33:00,
2013-05-30 22:42:00,54.0,50.0,-100.00,NNW,340,9.0,14.0,83,-99.99,,,-99.99,,2013-05-31 04:42:00,
2013-05-30 22:53:00,55.0,50.0,-100.00,NNW,340,11.0,13.0,83,-99.99,,,-99.99,,2013-05-31 04:53:00,
2013-05-30 23:02:00,53.0,48.0,-100.00,WNW,285,9.0,13.0,83,-99.99,,,-99.99,,2013-05-31 05:02:00,
2013-05-30 23:12:00,53.0,48.0,-100.00,WNW,285,9.0,13.0,83,-99.99,,,-99.99,,2013-05-31 05:12:00,
2013-05-30 23:22:00,53.0,48.0,-100.00,WNW,285,14.0,16.0,83,-99.99,,,-99.99,,2013-05-31 05:22:00,
2013-05-30 23:32:00,53.0,48.0,-100.00,WNW,290,12.0,16.0,83,-99.99,,,-99.99,,2013-05-31 05:32:00,
2013-05-30 23:42:00,53.0,48.0,-100.00,WNW,290,12.0,16.0,83,-99.99,,,-99.99,,2013-05-31 05:42:00,
2013-05-30 23:52:00,53.0,48.0,-100.00,WNW,295,13.0,18.0,83,-99.99,,,-99.99,,2013-05-31 05:52:00,